Oak Ridge, TN

4:30 PM EST on November 22, 2017 (GMT -0500)
Oak Ridge

Weather History for KOQT - March, 2014

Change the Weather History Date:

Sunday, March 16, 2014

  Actual Average (KTYS) Record (KTYS)
Temperature  
Mean Temperature 48 °F -  
Max Temperature 53 °F 60 °F 81 °F (1942)
Min Temperature 42 °F 39 °F 18 °F (1890)
Degree Days  
Heating Degree Days 18    
Moisture  
Dew Point 45 °F    
Average Humidity 87    
Maximum Humidity 96    
Minimum Humidity 66    
Precipitation  
Precipitation 0.58 in - - ()
Sea Level Pressure  
Sea Level Pressure 29.79 in    
Wind  
Wind Speed 4 mph (NE)    
Max Wind Speed 12 mph    
Max Gust Speed 17 mph    
Visibility 7 miles    
Events Rain    
Averages and records for this station are not official NWS values.
T = Trace of Precipitation, MM = Missing Value Source: NWS Daily Summary

Daily Weather History Graph

Daily Weather History Graph

Search for Another Location

Airport or City:

Trip Planner

Search our weather history database for the weather conditions in past years. The results will help you decide how hot, cold, wet, or windy it might be!

Date:

Astronomy

Mar. 16, 2014 Rise Set
Actual Time 7:46 AM EDT 7:45 PM EDT
Civil Twilight 7:20 AM EDT 8:10 PM EDT
Nautical Twilight 6:51 AM EDT 8:40 PM EDT
Astronomical Twilight 6:20 AM EDT 9:10 PM EDT
Moon 8:00 PM EDT (3/16) 7:29 AM EDT (3/16)
Length of Visible Light 12h 50m
Length of Day
11h 59m
Full, 100% of the Moon is Illuminated
Mar 16
Full
Mar 16
Full
Mar 23
Last Quarter
Mar 30
New
Apr 7
First Quarter

Hourly Weather History & Observations

Time (EDT) Temp. Windchill Dew Point Humidity Pressure Visibility Wind Dir Wind Speed Gust Speed Precip Events Conditions
12:53 AM 48.9 °F - 37.9 °F 66% 30.01 in 10.0 mi East 3.5 mph - N/A   Clear
1:53 AM 48.9 °F - 37.9 °F 66% 29.99 in 10.0 mi Calm Calm - N/A   Partly Cloudy
2:53 AM 48.0 °F - 39.0 °F 71% 29.98 in 10.0 mi Calm Calm - N/A   Partly Cloudy
3:53 AM 48.0 °F - 39.0 °F 71% 29.96 in 10.0 mi Calm Calm - N/A   Overcast
4:53 AM 46.9 °F - 39.0 °F 74% 29.92 in 10.0 mi Calm Calm - N/A   Scattered Clouds
5:53 AM 48.0 °F - 37.9 °F 68% 29.90 in 10.0 mi Calm Calm - N/A   Scattered Clouds
6:53 AM 46.9 °F - 39.9 °F 77% 29.88 in 10.0 mi NE 3.5 mph - 0.00 in Rain Light Rain
7:53 AM 46.0 °F - 42.1 °F 86% 29.90 in 10.0 mi Calm Calm - 0.02 in Rain Light Rain
8:53 AM 45.0 °F 43.5 °F 43.0 °F 93% 29.91 in 4.0 mi NE 3.5 mph - 0.07 in Rain Rain
9:53 AM 45.0 °F 42.6 °F 43.0 °F 93% 29.93 in 4.0 mi ENE 4.6 mph - 0.14 in Rain Rain
10:53 AM 45.0 °F 40.6 °F 43.0 °F 93% 29.92 in 3.0 mi ENE 8.1 mph - 0.17 in Rain Rain
11:53 AM 46.9 °F - 45.0 °F 93% 29.84 in 10.0 mi ENE 11.5 mph - 0.08 in Rain Light Rain
12:13 PM 48.9 °F - 46.0 °F 90% 29.82 in 10.0 mi NE 8.1 mph 17.3 mph 0.00 in   Mostly Cloudy
12:53 PM 50.0 °F - 46.9 °F 89% 29.80 in 10.0 mi NE 9.2 mph - 0.00 in   Overcast
1:07 PM 51.1 °F - 48.0 °F 89% 29.78 in 10.0 mi NE 8.1 mph - N/A   Overcast
1:36 PM 52.0 °F - 48.0 °F 86% 29.76 in 10.0 mi Variable 5.8 mph - N/A   Overcast
1:53 PM 52.0 °F - 48.0 °F 86% 29.76 in 10.0 mi NE 4.6 mph - N/A   Overcast
2:53 PM 52.0 °F - 48.0 °F 86% 29.73 in 10.0 mi Variable 4.6 mph - N/A   Overcast
3:22 PM 52.0 °F - 48.0 °F 86% 29.71 in 10.0 mi ENE 4.6 mph - N/A   Overcast
3:31 PM 52.0 °F - 46.9 °F 83% 29.70 in 10.0 mi Variable 3.5 mph - N/A   Overcast
3:53 PM 52.0 °F - 46.9 °F 83% 29.71 in 10.0 mi Variable 4.6 mph - N/A   Overcast
4:28 PM 51.1 °F - 48.9 °F 92% 29.69 in 3.0 mi Variable 6.9 mph - 0.00 in Rain Light Rain
4:37 PM 51.1 °F - 48.9 °F 92% 29.69 in 2.5 mi Variable 4.6 mph - 0.00 in Rain Light Rain
4:53 PM 51.1 °F - 48.9 °F 92% 29.71 in 3.0 mi NE 5.8 mph - 0.00 in   Overcast
5:36 PM 50.0 °F - 48.0 °F 93% 29.69 in 2.5 mi NE 4.6 mph - N/A   Overcast
5:53 PM 50.0 °F - 48.0 °F 93% 29.69 in 2.5 mi Variable 4.6 mph - 0.01 in   Overcast
6:21 PM 50.0 °F - 48.0 °F 93% 29.67 in 4.0 mi NE 5.8 mph - N/A   Overcast
6:53 PM 50.0 °F - 48.0 °F 93% 29.69 in 3.0 mi NE 5.8 mph - N/A   Overcast
7:27 PM 48.9 °F - 46.9 °F 93% 29.70 in 2.5 mi Variable 3.5 mph - N/A   Overcast
7:39 PM 48.0 °F - 46.0 °F 93% 29.70 in 4.0 mi NE 5.8 mph - 0.00 in   Overcast
7:53 PM 48.0 °F - 46.0 °F 93% 29.72 in 4.0 mi NNE 5.8 mph - 0.00 in Rain Light Rain
8:11 PM 48.0 °F - 46.0 °F 93% 29.71 in 6.0 mi NE 6.9 mph - 0.00 in   Overcast
8:53 PM 48.0 °F - 45.0 °F 89% 29.74 in 10.0 mi Variable 5.8 mph - 0.00 in Rain Light Rain
9:34 PM 46.0 °F 43.1 °F 45.0 °F 96% 29.74 in 4.0 mi ENE 5.8 mph - 0.02 in Rain Light Rain
9:53 PM 46.0 °F 41.9 °F 44.1 °F 93% 29.75 in 8.0 mi ENE 8.1 mph - 0.03 in Rain Light Rain
10:53 PM 43.0 °F 38.8 °F 41.0 °F 93% 29.77 in 7.0 mi ENE 6.9 mph - 0.02 in Rain Light Rain
11:53 PM 42.1 °F 37.7 °F 39.9 °F 92% 29.76 in 4.0 mi ENE 6.9 mph - 0.04 in Rain Light Rain